Tracking 19283 objects as of 17-Nov-2018
HD Live streaming from Space Station
objects crossing your sky now

CHINASAT 7

Track CHINASAT 7 now!
CHINASAT 7 is classified as:


NORAD ID: 24282
Int'l Code: 1996-048A
Perigee: 22,310.4 km
Apogee: 45,876.3 km
Inclination: 22.0 °
Period: 1,350.1 minutes
Semi major axis: 40464 km
RCS: 1 m2 (large)
Launch date: August 18, 1996
Source: People's Republic of China (PRC)
Launch site: Xichang Space Center, China (XSC)
aabbcc
Your satellite tracking list
Your tracking list is empty




NASA's NSSDC Master Catalog

Two Line Element Set (TLE):
1 24282U 96048A   18319.81723316 -.00000211 +00000-0 +00000-0 0  9993
2 24282 022.0202 262.9409 2911940 147.8827 018.8895 01.06658221089167
Source of the keplerian elements: AFSPC